Terug naar catalogus

STARLINK-11293

ActiefCommunicatieVLEO
NORAD 61249·PAYLOAD·🇺🇸 United States

Gelanceerd Sep 25, 2024 vanaf Vandenberg Space Force Base

Loading…

Volgende Passages (komende 24 uur)

TLE

VersSource: CelesTrak SupGP

Epoch: Sep 15, 2026, 03:17 UTC

1 61249C 24175G   26258.13729167 -.00085672  00000+0 -70538-3 0  2583
2 61249  53.1574 202.0404 0001192  85.3824 348.6205 15.69763384    15

Volg STARLINK-11293 in realtime met AllMySat

Download on the App Store